This demonstration page uses our WeatherBlox Daily Observations layout. Learn more.

Left ArrowRight Arrow

39.12711, -84.51439

Hourly Observations for August 25, 2016

Temp ( °F °C ) Dew Point ( °F °C ) Humidity (%) Winds ( mph kmh ) Pressure ( in mb ) Visibility ( mi km ) Precip ( " mm )
12:53 am 00:53 Clear 77 25 73 22.8 88 88 SW 7 11 30.05 1018 10 16 N/A
1:53 am 01:53 Clear 77 25 73 22.8 88 88 SSW 8 13 30.05 1018 10 16 N/A
2:53 am 02:53 Clear 77 25 73 22.8 88 88 SSW 7 11 30.05 1018 10 16 N/A
3:53 am 03:53 Clear 77 25 74 23.3 90 90 SW 8 13 30.05 1018 10 16 N/A
4:53 am 04:53 Clear 75 23.9 73 22.8 94 94 SSW 6 9 30.06 1018 10 16 N/A
5:53 am 05:53 Clear 76 24.4 74 23.3 94 94 SSW 6 9 30.05 1018 10 16 N/A
6:53 am 06:53 Clear 74 23.3 73 22.8 97 97 N N/A 30.06 1018 10 16 N/A
7:53 am 07:53 Mostly Cloudy 76 24.4 75 23.9 97 97 S 3 6 30.08 1019 9 14 N/A
8:53 am 08:53 Partly Cloudy 79 26.1 75 23.9 88 88 S 8 13 30.07 1018 10 16 N/A
9:53 am 09:53 Mostly Cloudy 82 27.8 76 24.4 82 82 WSW 8 13 30.06 1018 10 16 N/A
10:19 am 10:19 Mostly Cloudy 82 27.8 75 23.9 79 79 WSW 9 15 30.06 1018 10 16 N/A
10:53 am 10:53 Cloudy 82 27.8 76 24.4 82 82 WSW 12 19 30.06 1018 10 16 N/A
11:53 am 11:53 Cloudy 83 28.3 76 24.4 79 79 SW 6 9 30.07 1018 9 14 N/A
12:53 pm 12:53 Mostly Cloudy 86 30 77 25 75 75 W 9 15 30.07 1018 8 13 N/A
1:04 pm 13:04 Partly Cloudy 86 30 75 24 70 70 SW 10 17 30.06 1018 9 14 N/A
1:53 pm 13:53 Mostly Cloudy 88 31.1 76 24.4 68 68 SW 15 24 30.06 1018 9 14 N/A
2:53 pm 14:53 Mostly Cloudy 90 32.2 75 23.9 62 62 SSW 12 19 30.05 1018 10 16 N/A
3:53 pm 15:53 Partly Cloudy 89 31.7 74 23.3 61 61 SW 12 19 30.04 1017 10 16 N/A
4:53 pm 16:53 Partly Cloudy 91 32.8 74 23.3 57 57 WSW 12 19 30.03 1017 10 16 N/A
5:53 pm 17:53 Partly Cloudy 88 31.1 73 22.8 61 61 SW 12 19 30.02 1017 10 16 N/A
6:53 pm 18:53 Sunny 88 31.1 72 22.2 59 59 W 8 13 30.02 1017 10 16 N/A
7:53 pm 19:53 Mostly Sunny 84 28.9 73 22.8 70 70 SW 7 11 30.03 1017 10 16 N/A
8:53 pm 20:53 Clear 79 26.1 74 23.3 85 85 N N/A 30.03 1017 10 16 N/A
9:53 pm 21:53 Clear 76 24.4 75 23.9 97 97 N N/A 30.05 1018 9 14 N/A
10:53 pm 22:53 Clear 74 23.3 74 23.3 100 100 N N/A 30.06 1018 9 14 N/A
11:53 pm 23:53 Clear 74 23.3 74 23.3 100 100 N N/A 30.06 1018 9 14 N/A

Powered by AerisWeather